Location: Brunembert
(50.7122°N, 1.8935°E)
Time: 03:26:51
(UTC+00:00)

Cosmos 468 Rocket - Pass Details

Date: 22 April 2021
Orbit: 745 x 779 km, 74.0° (Epoch: 06 May)

Event Time Altitude Azimuth Distance (km) Brightness Sun altitude
Rises 20:41:29 0° 337° (NNW) 3,200 8.5 -14.6°
Reaches altitude 10° 20:43:54 10° 342° (NNW) 2,273 7.4 -14.8°
Maximum altitude 20:48:58 57° 61° (ENE) 881 4.2 -15.4°
Enters shadow 20:51:46 26° 131° (SE) 1,455 4.8 -15.7°
